Weather in Bor

Serbia     44°04′26″N   22°05′56″E
temp.,
°C
wind,
m/s
gust,
m/s
humid.,
%
clouds,
%
prec.,
mm/h
press.,
hPa
HPBL,
m
21 january, fri
fri2101:000wsw2496100 3.9 1019122
04:00−1w2487100 0.4 102096
07:00−3w2485100 0.4 1023101
10:00−1w397376 0.1 10231203
13:000w6117469 0.6 10221556
16:00−3wnw6126945 0.3 10231252
19:00−4wnw5126457 0.3 10241011
22:00−4wnw613749 0.0 1025875
22 january, sat
sat2201:00−5w4117869 0.1 1024805
04:00−4w4117986 0.9 10231046
07:00−4w5118037 1.5 1023787
10:00−2w497181 0.4 1022931
13:00−2w3883100 2.7 10201005
16:00−2w269082 2.3 1020415
19:00−5wnw35847 2.6 1023120
22:00−4nw412712 0.0 1026598
23 january, sun
sun2301:00−7wnw368014 0.0 1027137
04:00−7w258932 0.1 1027188
07:00−7w378512 0.1 1027240
10:00−3wnw5107134 0.1 1027973
13:00−2nw510689 0.1 10261012
16:00−4wnw3676100 0.0 1027223
19:00−6wnw2684100 0.0 1027268
22:00−7w248611 0.0 1028121
24 january, mon
mon2401:00−6nw258381 0.1 1028172
04:00−6nw238696 0.1 1030100
07:00−9nw228859 0.1 103245
10:00−5e127596 0.0 1033559
13:00−3ese116786 0.3 1033814
16:00−5sw117785 0.3 103438
19:00−8wnw22876 0.4 103645
22:00−9wnw228410 0.0 103743
25 january, tue
tue2501:00−10wnw228517 0.0 103856
04:00−10wnw238933 0.0 103768
07:00−10w239016 0.0 103877
10:00−5w35695 0.0 1036449
13:00−3wnw36605 0.0 1034631
16:00−6w35785 0.0 1034213
19:00−9w348785 0.0 1034117
22:00−9w348634 0.0 103395